Regional Weather Roundup
Issued by NWS Cleveland, OH

Home | Current Version | Previous Version | Graphics & Text | Print | Product List | Glossary On
Versions: 1 2 3 4 5 6 7 8 9 10 11 12 13 14 15 16 17 18 19 20 21 22 23 24 25 26 27 28 29 30 31 32 33 34 35 36 37 38 39 40 41 42 43 44 45 46 47 48 49 50
000
ASUS41 KCLE 201700
RWRCLE
OHIO REGIONAL WEATHER ROUNDUP
NATIONAL WEATHER SERVICE WILMINGTON, OH
100 PM EDT MON OCT 20 2014

NOTE: "FAIR" INDICATES FEW OR NO CLOUDS BELOW 12,000 FEET WITH NO
SIGNIFICANT WEATHER AND/OR OBSTRUCTIONS TO VISIBILITY.

OHZ001>008-015>018-024>027-034-035-043-044-201800-
   NORTHWEST OHIO

CITY           SKY/WX    TMP DP  RH WIND       PRES   REMARKS
DEFIANCE       RAIN      52  48  86 S6        29.85F FOG
FINDLAY        CLOUDY    57  47  69 SW14      29.86S
TOLEDO EXPRESS CLOUDY    54  46  74 SW13      29.84S
TOLEDO METCALF CLOUDY    57  46  66 SW18      29.85S
LIMA           CLOUDY    55  47  74 SW12      29.88R
$$

OHZ009>014-019>023-028>033-038-089-201800-
   NORTHEAST OHIO

CITY           SKY/WX    TMP DP  RH WIND       PRES   REMARKS
CLE-HOPKINS    PTSUNNY   57  46  66 S14       29.89F
CLE-LAKEFRONT  PTSUNNY   56  44  64 S16G23    29.85F
CUY CO. ARPT   PTSUNNY   57  48  72 S15       29.88F
LORAIN-ELYRIA  LGT RAIN  54  46  74 S10       29.86F
ASHTABULA      PTSUNNY   54  43  66 S13       29.89F
AKRON-CANTON   CLOUDY    55  43  63 S13       29.90F
WOOSTER        NOT AVBL
MANSFIELD      LGT RAIN  54  45  71 S15       29.88F
YOUNGSTOWN     PTSUNNY   54  43  66 SW9       29.90F
$$

OHZ042-051>053-060>062-070>072-077>081-201800-
  SOUTHWEST OHIO

CITY           SKY/WX    TMP DP  RH WIND       PRES   REMARKS
CINC-COVINGTON PTSUNNY   57  47  69 SW17G23   29.94
CINC-LUNKEN    PTSUNNY   59  47  64 S14G22    29.94F
HAMILTON       MOSUNNY   64  48  56 SW15G22   29.92F
DAYTON         NOT AVBL
WRIGHT-PAT AFB NOT AVBL
DAYTON GENERAL MOSUNNY   59  46  62 SW17G24   29.90F
WILMINGTON       N/A    N/A N/A N/A MISG      29.91F
$$

OHZ036-037-039>041-045>050-054>059-063>069-073>076-082>088-201800-
  CENTRAL AND SOUTHEAST OHIO

CITY           SKY/WX    TMP DP  RH WIND       PRES   REMARKS
COLUMBUS       PTSUNNY   58  45  62 S13       29.92F
OSU AIRPORT    MOSUNNY   61  46  57 SW14      29.90F
BOLTON FIELD   SUNNY     61  46  59 SW15G23   29.92F
RICKENBACK AFB NOT AVBL
NEWARK         MOSUNNY   59  44  57 S12       29.92F
MARION         LGT RAIN  57  47  69 SW12      29.87F
LANCASTER      PTSUNNY   57  44  62 SW12G21   29.94F
ZANESVILLE     PTSUNNY   56  43  61 S10       29.93F
NEW PHILLY     CLOUDY    55  43  63 VRB7      29.93F
$$



USA.gov is the U.S. government's official web portal to all federal, state and local government web resources and services.